This is the latest recevied weather packets stored in our database for station/object KLEMETTI. If no packets are shown the sender has not sent any weather packets the latest 10 day(s).
| Time | Temp. | Humidity | Pressure | Rain* | Wind** | Luminosity | Snow |
|---|---|---|---|---|---|---|---|
| 1777294003 | 7.22° C | 35% | 1019.6 hPa | 0 mm | - | - | - |
| 1777292804 | 7.22° C | 36% | 1019.5 hPa | 0 mm | - | - | - |
| 1777291603 | 6.11° C | 39% | 1019.6 hPa | 0 mm | - | - | - |
| 1777290403 | 6.67° C | 42% | 1019.5 hPa | 0 mm | - | - | - |
| 1777289204 | 6.11° C | 40% | 1019.5 hPa | 0 mm | - | - | - |
| 1777288004 | 6.11° C | 41% | 1019.3 hPa | 0 mm | - | - | - |
| 1777286803 | 5.56° C | 41% | 1019.3 hPa | 0 mm | - | - | - |
| 1777285603 | 5.56° C | 43% | 1019.3 hPa | 0 mm | - | - | - |
| 1777284403 | 5.56° C | 44% | 1019.2 hPa | 0 mm | - | - | - |
| 1777283204 | 5° C | 45% | 1019.2 hPa | 0 mm | - | - | - |
| 1777282003 | 5.56° C | 46% | 1019.1 hPa | 0 mm | - | - | - |
| 1777280803 | 4.44° C | 49% | 1018.9 hPa | 0 mm | - | - | - |
| 1777279603 | 4.44° C | 50% | 1018.7 hPa | 0 mm | - | - | - |
| 1777278404 | 5° C | 50% | 1018.6 hPa | 0 mm | - | - | - |
| 1777277203 | 4.44° C | 53% | 1018.7 hPa | 0 mm | - | - | - |
| 1777276003 | 4.44° C | 53% | 1018.6 hPa | 0 mm | - | - | - |
| 1777274802 | 4.44° C | 54% | 1018.4 hPa | 0 mm | - | - | - |
| 1777273603 | 3.89° C | 56% | 1018.2 hPa | 0 mm | - | - | - |
| 1777272402 | 3.89° C | 57% | 1018.1 hPa | 0 mm | - | - | - |
| 1777271202 | 3.89° C | 59% | 1017.9 hPa | 0 mm | - | - | - |
| 1777270003 | 3.89° C | 61% | 1017.7 hPa | 0 mm | - | - | - |
| 1777268802 | 3.33° C | 62% | 1017.6 hPa | 0 mm | - | - | - |
| 1777267602 | 3.33° C | 62% | 1017.5 hPa | 0 mm | - | - | - |
| 1777266403 | 2.78° C | 64% | 1017.4 hPa | 0 mm | - | - | - |
| 1777265202 | 2.78° C | 65% | 1017.3 hPa | 0 mm | - | - | - |
* Rain latest hour (hover to see other rain measurements)
** Current wind speed in m/s (hover to see current wind gust speed)